Home > Weather > Istanbul > Past weeks

Flag for Turkey Weather for the Past 2 Weeks in Istanbul, Turkey

Now
39 °F

Clear.


Feels Like: 34 °F
Forecast: 37 / 51 °F
Wind: 7 mph from North

Location: Istanbul Ataturk Airport

Current Time: Feb 8, 2016 at 9:57:34 PM

Latest Report: Feb 8, 2016 at 9:20 PM


Visibility: 4 mi

Pressure: 30.27 "Hg

Humidity: 70%

Dew point: 30 °F

Location of IstanbulLocation

Historic Weather in Istanbul — Graph

°F

Istanbul Temperature Yesterday

Maximum temperature yesterday: 48 °F (at 2:20 PM)
Minimum temperature yesterday: 34 °F (at 4:50 AM)
Average temperature yesterday: 41 °F

High & Low Weather Summary for the Past Weeks

 TemperatureHumidityPressure
High59 °F (Feb 3, 1:50 PM)100% (Jan 26, 11:20 AM)30.51 "Hg (Jan 26, 11:20 AM)
Low28 °F (Jan 26, 12:50 AM)39% (Jan 25, 1:50 PM)29.83 "Hg (Feb 5, 6:20 AM)
Average45 °F71%30.26 "Hg
* Reported Jan 24 8:20 PM — Feb 8 8:50 PM, Istanbul, Weather by CustomWeather, © 2016

Note: Actual official high and low records may vary slightly from our data, if they occured in-between our weather recording intervals... More about our weather records

Advertising

Istanbul Weather History for the Previous 24 Hours

 ConditionsComfort  
Time TempWeatherWind HumidityBarometerVisibility
8:50 PM
Mon, Feb 8
39 °FClear.8 mph75%30.27 "Hg4 mi
8:20 PM39 °FFog.8 mph75%30.27 "Hg2 mi
7:50 PM41 °FClear.7 mph70%30.27 "Hg4 mi
7:20 PM41 °FClear.8 mph70%30.27 "Hg4 mi
6:50 PM41 °FClear.8 mph70%30.27 "Hg4 mi
6:20 PM41 °FClear.10 mph66%30.27 "Hg10 mi
5:50 PM43 °FPassing clouds.6 mph66%30.27 "HgN/A
5:20 PM43 °FPassing clouds.6 mph66%30.27 "HgN/A
4:50 PM45 °FSunny.6 mph61%30.27 "Hg10 mi
4:20 PM46 °FPassing clouds.6 mph57%30.27 "HgN/A
3:50 PM46 °FPassing clouds.6 mph57%30.27 "HgN/A
3:20 PM46 °FPassing clouds.7 mph57%30.27 "HgN/A
2:50 PM46 °FPassing clouds.7 mph57%30.27 "HgN/A
2:20 PM46 °FPassing clouds.7 mph57%30.27 "HgN/A
1:50 PM46 °FPassing clouds.8 mph50%30.27 "HgN/A
1:20 PM48 °FPassing clouds.7 mph46%30.30 "HgN/A
12:50 PM46 °FSunny.7 mph46%30.30 "Hg10 mi
12:20 PM46 °FPassing clouds.6 mph50%30.30 "HgN/A
11:50 AM46 °FPassing clouds.6 mph53%30.30 "HgN/A
11:20 AM46 °FPassing clouds.6 mph53%30.33 "HgN/A
10:50 AM43 °FPassing clouds.8 mph61%30.33 "HgN/A
10:20 AM43 °FPassing clouds.9 mph57%30.33 "HgN/A
9:50 AM43 °FPassing clouds.8 mph61%30.33 "HgN/A
9:20 AM41 °FSunny.7 mph61%30.33 "Hg10 mi
8:50 AM41 °FPassing clouds.8 mph66%30.33 "HgN/A
8:20 AM41 °FPassing clouds.7 mph66%30.33 "HgN/A
7:50 AM39 °FClear.7 mph70%30.33 "Hg4 mi
7:20 AM37 °FPassing clouds.5 mph70%30.33 "HgN/A
6:50 AM37 °FPassing clouds.5 mph70%30.33 "HgN/A
6:20 AM37 °FPassing clouds.7 mph70%30.33 "HgN/A
5:50 AM37 °FClear.8 mph70%30.33 "Hg10 mi
4:50 AM37 °FPassing clouds.8 mph70%30.33 "HgN/A
4:20 AM37 °FClear.8 mph70%30.33 "Hg10 mi
3:50 AM37 °FClear.7 mph70%30.33 "Hg10 mi
2:50 AM37 °FPassing clouds.7 mph70%30.33 "HgN/A
2:20 AM39 °FPassing clouds.9 mph65%30.33 "HgN/A
1:50 AM39 °FPassing clouds.8 mph65%30.36 "HgN/A
1:20 AM39 °FPassing clouds.7 mph65%30.36 "HgN/A
12:50 AM39 °FPassing clouds.9 mph65%30.36 "HgN/A
12:20 AM39 °FPassing clouds.7 mph65%30.36 "HgN/A
11:50 PM
Sun, Feb 7
39 °FClear.8 mph65%30.39 "Hg10 mi
11:20 PM39 °FClear.9 mph65%30.39 "Hg10 mi
10:50 PM39 °FPassing clouds.9 mph65%30.39 "HgN/A
10:20 PM39 °FPassing clouds.9 mph65%30.39 "HgN/A
9:50 PM43 °FPassing clouds.9 mph57%30.39 "HgN/A
9:20 PM41 °FPassing clouds.12 mph61%30.39 "HgN/A
Weather by CustomWeather, © 2016

See weather overviewHow to use our weather pages